Вернуться в каталог

STARLINK-31911

АктивенСвязьVLEO
NORAD 60587·PAYLOAD·🇺🇸 United States

Запущен Aug 20, 2024 с Cape Canaveral Space Force Station

Loading…

Ближайшие Пролёты (ближайшие 24 часа)

TLE

СвежийSource: CelesTrak SupGP

Эпоха: Sep 14, 2026, 21:36 UTC

1 60587C 24150E   26257.90048611 -.00049967  00000+0 -14762-2 0  2574
2 60587  53.1576 144.0767 0001329  95.9887  63.0609 15.34418192    18

Отслеживайте STARLINK-31911 в реальном времени с AllMySat

Download on the App Store